Regional Weather Roundup
Issued by NWS Green Bay, WI

Home | Current Version | Previous Version | Graphics & Text | Print | Product List | Glossary Off
Versions: 1 2 3 4 5 6 7 8 9 10 11 12 13 14 15 16 17 18 19 20 21 22 23 24 25 26 27 28 29 30 31 32 33 34 35 36 37 38 39 40 41 42 43 44 45 46 47 48 49 50

000
ASUS43 KGRB 230111
RWRGRB

NORTH-CENTRAL AND NORTHEAST WISCONSIN REGIONAL WEATHER ROUNDUP
NATIONAL WEATHER SERVICE GREEN BAY WI
800 PM CDT WED MAR 22 2017

WIZ005-009-010>012-018-019-230200-
NORTH CENTRAL WISCONSIN

CITY           SKY/WX    TMP DP  RH WIND       PRES   REMARKS
IRONWOOD       NOT AVBL
MANITOWISH WTR CLEAR     29   6  38 S5        30.36S
ARBOR VITAE    CLEAR     32   6  33 S5        30.37S
EAGLE RIVER    CLEAR     29   4  34 S3        30.38R
LAND O LAKES   CLEAR     30   1  29 CALM      30.39S
RHINELANDER    CLEAR     31   6  35 SE3       30.39S
PHILLIPS       CLOUDY    29  10  45 S6        30.37S
ANTIGO         CLOUDY    28  13  52 S9        30.41S
TOMAHAWK       CLEAR     29   7  39 CALM      30.40S
MERRILL        CLEAR     31   8  37 CALM      30.40F
$$

WIZ013-073-230200-
NORTHEAST WISCONSIN

CITY           SKY/WX    TMP DP  RH WIND       PRES   REMARKS
IRON MOUNTAIN  CLEAR     29   7  39 SE7       30.42S
MARINETTE        N/A    N/A N/A N/A MISG        N/A
OCONTO         CLOUDY    26  19  74 SE6       30.50F
$$

WIZ017-030-035>037-045-230200-
CENTRAL WISCONSIN

CITY           SKY/WX    TMP DP  RH WIND       PRES   REMARKS
MEDFORD        CLEAR     29  12  49 SE5       30.37F
WAUSAU         CLEAR     29   9  43 SE8       30.40F
MOSINEE        PTCLDY    28  10  47 SE7       30.42F
MARSHFIELD     CLEAR     29  12  49 S8        30.39F
WISC RAPIDS    CLEAR     31   9  39 S5        30.44S
STEVENS POINT  CLEAR     28  11  49 SE7       30.43F
WAUPACA        CLEAR     30  16  56 E5        30.46F
SHAWANO        CLOUDY    32  14  47 CALM      30.47F
CLINTONVILLE   PTCLDY    30  12  47 S5        30.46F
WAUTOMA        PTCLDY    32  16  51 SE3       30.46F
$$

WIZ038-039-048-051-230200-
FOX VALLEY

CITY           SKY/WX    TMP DP  RH WIND       PRES   REMARKS
NWS GREEN BAY  PTCLDY    30  22  72 SE9       30.49F
APPLETON       MOCLDY    28  18  64 SE9       30.45F
OSHKOSH        PTCLDY    30  20  66 SE10      30.46F
FOND DU LAC    PTCLDY    30  19  63 SE13      30.47F
$$

WIZ022-050-052-230200-
EAST CENTRAL WISCONSIN

CITY           SKY/WX    TMP DP  RH WIND       PRES   REMARKS
EPHRAIM        FAIR      22  15  76 S3        30.50S
WASHINGTON ISL FAIR      21  13  70 CALM      30.50F
STURGEON BAY   CLEAR     23  16  74 SE3       30.51F
MANITOWOC      PTCLDY    25  18  74 SE5       30.52F
SHEBOYGAN      CLEAR     25  16  68 SE5       30.50F
$$

LMZ563-521-522-541>543-230200-
LAKESHORE

STATION/POSITION TIME  TEMP    WIND        PRES    VSBY  WAVE
                       AIR SEA DIR/SP/G                  HT/PER
                 (UTC) (F)     (DEG/KT/KT) (MB)    (MI)  (FT/S)
SHEBOYGAN LKSHOR 0000   26     100/  4/  5 1034.7F
KEWAUNEE LKSHORE 0042   26     130/  3/  6 1032.7F
NORTHPORT PIER   0040   24     160/  2/  5 1033.2F
CHAMBERS ISLAND  0040   25     140/  4/  6 1032.5F
MENOMINEE LKSHOR 0042   27     140/ 11/ 12 1031.9F
$$



USA.gov is the U.S. government's official web portal to all federal, state and local government web resources and services.